TimeEST,TemperatureF,Dew PointF,Humidity,Sea Level PressureIn,VisibilityMPH,Wind Direction,Wind SpeedMPH,Gust SpeedMPH,PrecipitationIn,Events,Conditions,WindDirDegrees,DateUTC
12:53 AM,37.0,33.1,86,30.09,10.0,North,8.1,-,N/A,,Mostly Cloudy,360,2011-11-28 05:53:00
1:53 AM,37.0,32.0,82,30.11,10.0,North,9.2,-,N/A,,Overcast,360,2011-11-28 06:53:00
2:53 AM,36.0,30.0,79,30.10,10.0,North,9.2,-,N/A,,Overcast,10,2011-11-28 07:53:00
3:53 AM,35.1,28.9,78,30.12,10.0,North,12.7,-,N/A,,Overcast,10,2011-11-28 08:53:00
4:53 AM,35.1,28.9,78,30.11,10.0,NNE,9.2,-,N/A,,Overcast,20,2011-11-28 09:53:00
5:53 AM,34.0,28.0,79,30.11,10.0,NNE,9.2,18.4,N/A,,Partly Cloudy,30,2011-11-28 10:53:00
6:53 AM,33.1,28.0,82,30.13,10.0,NE,6.9,-,N/A,,Clear,40,2011-11-28 11:53:00
7:29 AM,33.8,28.4,81,30.10,10.0,NNE,9.2,-,N/A,,Mostly Cloudy,30,2011-11-28 12:29:00
7:53 AM,33.1,28.9,85,30.12,10.0,NNE,8.1,-,N/A,,Scattered Clouds,20,2011-11-28 12:53:00
8:53 AM,33.1,28.9,85,30.13,10.0,NNE,8.1,-,N/A,,Partly Cloudy,20,2011-11-28 13:53:00
9:53 AM,35.1,28.0,76,30.13,10.0,NE,12.7,-,N/A,,Partly Cloudy,50,2011-11-28 14:53:00
10:40 AM,37.4,30.2,75,30.09,10.0,NE,15.0,-,N/A,,Mostly Cloudy,50,2011-11-28 15:40:00
10:53 AM,37.0,30.0,76,30.13,10.0,NE,12.7,-,N/A,,Overcast,50,2011-11-28 15:53:00
12:33 PM,37.4,30.2,75,30.04,10.0,NE,11.5,-,N/A,,Overcast,40,2011-11-28 17:33:00
12:53 PM,37.0,30.9,79,30.07,10.0,NNE,9.2,-,N/A,,Overcast,30,2011-11-28 17:53:00
1:53 PM,37.9,30.9,76,30.04,10.0,NNE,10.4,-,N/A,,Overcast,20,2011-11-28 18:53:00
2:53 PM,37.0,30.9,79,30.04,10.0,North,10.4,-,N/A,,Overcast,360,2011-11-28 19:53:00
3:53 PM,37.0,30.9,79,30.02,10.0,North,11.5,18.4,N/A,,Overcast,10,2011-11-28 20:53:00
4:53 PM,37.0,30.9,79,30.01,10.0,NNE,12.7,-,N/A,,Overcast,30,2011-11-28 21:53:00
5:53 PM,37.0,30.9,79,30.01,10.0,NNE,12.7,-,0.00,Rain,Light Rain,30,2011-11-28 22:53:00
6:53 PM,36.0,32.0,86,30.00,10.0,NNE,11.5,-,0.00,,Overcast,30,2011-11-28 23:53:00
7:46 PM,37.4,32.0,81,29.96,7.0,NNE,11.5,-,N/A,,Overcast,20,2011-11-29 00:46:00
7:53 PM,36.0,32.0,86,29.99,5.0,NNE,12.7,-,0.00,,Overcast,20,2011-11-29 00:53:00
8:08 PM,35.6,33.8,93,29.96,3.0,NNE,10.4,20.7,0.01,Rain,Light Rain,20,2011-11-29 01:08:00
8:53 PM,36.0,33.1,89,29.98,4.0,NNE,9.2,-,0.04,Rain,Light Rain,20,2011-11-29 01:53:00
9:53 PM,36.0,34.0,93,29.98,3.0,North,11.5,-,0.15,Rain,Rain,10,2011-11-29 02:53:00
10:29 PM,37.4,33.8,87,29.90,6.0,NNE,12.7,21.9,0.06,Rain,Light Rain,20,2011-11-29 03:29:00
10:53 PM,37.0,34.0,89,29.91,8.0,NNE,11.5,-,0.09,Rain,Light Rain,30,2011-11-29 03:53:00
11:53 PM,37.9,35.1,89,29.91,5.0,NNE,8.1,-,0.08,Rain,Rain,20,2011-11-29 04:53:00